Regional Weather Roundup
Issued by NWS State College, PA

Home | Current Version | Previous Version | Text Only | Print | Product List | Glossary On
Versions: 1 2 3 4 5 6 7 8 9 10 11 12 13 14 15 16 17 18 19 20 21 22 23 24 25 26 27 28 29 30 31 32 33 34 35 36 37 38 39 40 41 42 43 44 45 46 47 48 49 50
000
ASUS41 KCTP 181110
RWRCTP

REGIONAL WEATHER ROUNDUP
NATIONAL WEATHER SERVICE STATE COLLEGE PA
700 AM EDT FRI APR 18 2014

Note: "fair" indicates few or no clouds below 12,000 feet with no
significant weather and/or obstructions to visibility.

* = STATION THAT DOES NOT REPORT PRECIPITATION /E.G. RAIN...SNOW...ETC/
    THUNDER OR FOG.

PAZ002>004-007>009-013>016-020>023-029>032-181200-
WESTERN PENNSYLVANIA

CITY           SKY/WX    TMP DP  RH WIND       PRES   REMARKS
ERIE           MOCLDY    45  28  51 S17G26    30.28R
MEADVILLE      PTCLDY    40  28  62 VRB5      30.30S
FRANKLIN*      PTCLDY    36  27  69 SE9       30.35S
NEW CASTLE     FAIR      38  27  65 CALM      30.34R
BEAVER COUNTY  CLEAR     41  28  60 SE5       30.32
BUTLER*        MOCLDY    39  27  60 E7        30.35S
PITTSBURGH INT CLOUDY    41  27  57 E5        30.32R
PITTSBURGH     CLOUDY    43  27  53 SE3       30.32R
INDIANA*       CLOUDY    39  30  70 SE6       30.37R
LATROBE        CLOUDY    39  30  70 CALM      30.35R
WASHINGTON CO* MOCLDY    34  27  75 CALM      30.34R
$$

PAZ004>006-010>012-017>019-024>028-033>037-041-042-045-046-049>053-181200-
CENTRAL PENNSYLVANIA

CITY           SKY/WX    TMP DP  RH WIND       PRES   REMARKS
BRADFORD       PTCLDY    34  26  72 SE9       30.34R
DUBOIS         PTCLDY    36  29  75 SE10      30.35R
CLEARFIELD     PTCLDY    33  29  85 E5        30.40R
JOHNSTOWN      PTCLDY    31  28  89 S6        30.35R
ALTOONA        PTCLDY    33  30  88 S5        30.43R
STATE COLLEGE  CLEAR     36  28  75 SW5       30.44R
WILLIAMSPORT   PTCLDY    36  26  67 NE3       30.47R
SELINSGROVE    PTCLDY    35  28  75 S6        30.50R
FT INDIANTOWN  CLOUDY    33  33  99 CALM      30.52
CAPITAL CITY   PTCLDY    33  28  81 CALM      30.53R
HARRISBURG     CLOUDY    38  28  67 SE5       30.52R
YORK           PTCLDY    30  27  88 CALM      30.51R
$$

PAZ038>040-043-044-047-048-054-055-060>062-067>071-181200-
EASTERN PENNSYLVANIA

CITY           SKY/WX    TMP DP  RH WIND       PRES   REMARKS
SCRANTON       CLOUDY    32  26  78 S7        30.47S
MOUNT POCONO   CLOUDY    30  25  81 SE8       30.42S
ALLENTOWN      CLOUDY    34  29  82 CALM      30.52R
QUAKERTOWN*    CLOUDY    36  28  75 CALM      30.52R
READING        CLOUDY    37  27  67 E5        30.52R
LANCASTER      CLOUDY    35  27  72 SE3       30.51R
COATESVILLE    CLOUDY    36  28  75 E3        30.51R
POTTSTOWN      CLOUDY    37  29  72 CALM      30.54R
BLUE BELL      CLOUDY    37  30  75 CALM      30.52R
DOYLESTOWN     CLOUDY    35  29  78 E3        30.51R
WILLOW GROVE   NOT AVBL
NORTH PHILA    CLOUDY    40  28  62 NE5       30.54R
PHILADELPHIA   CLOUDY    39  27  62 E7        30.54R
$$



USA.gov is the U.S. government's official web portal to all federal, state and local government web resources and services.